OPS 4682 DEB, 38422

Orbit data source: Space-Track

OPS 4682 DEB, 38422 is space debris in LEO originally from a launch on Sat, 03 Apr 1965 UTC launched from the Air Force Western Test Range (AFWTR). Debris objects in space refer to the collection of defunct objects orbiting the Earth. Examples of debris include non-operational satellites, rocket bodies, and fragments generated from explosions, collisions, or faulty payload assembly.

Loading next visibility...
Identifier
38422, 1965-027EB
Orbit
LEO
Country
Flag of USUS
Related business
Manufacturer
Unknown
Mission
Spacecraft
Bus & Motor
Unknown
Mass
Unknown
Launch date (UTC)
1965-04-03 (61 years ago)
Launch vehicle
Unknown
Launch site
Air Force Western Test Range (AFWTR)
Object type
Payload
Rocket body
Debris
Shape & HBR
Unknown shape, 0.1 m
Radar Cross Section
Medium (>0.1 m² and <1 m²)

Expand to show TLE details & history
Last TLE update: 2 days ago

TLE from 2 days ago
0 OPS 4682 DEB
1 38422U 65027EB  26205.95556537  .00000661  00000-0  22433-2 0  9998
2 38422  90.2658  25.2635 0032930 325.1656  34.7310 12.97657366668021
Epoch: 2026-07-24T22:56Z
TLE epoch observation values (Epoch: 2026-07-24T22:56:00.847Z)
Latitude
0.00004°
Longitude
98.5852°
Altitude
1,253.481 km
Speed
7.238 km/s
True Right ascension
01h 41m 03s
True Declination
0° 00' 00"
Sunlit
Object was in daylight at epoch
Visualization orbit readout
Latitude
Unknown
Longitude
Unknown
Altitude
Unknown
Speed
Unknown
Apparent Right ascension
Unknown
Apparent Declination
Unknown
Sunlit
N/A
Visualization observer readout
Local Sidereal Time
23:11:49
Azimuth
Unknown
Elevation
Unknown
Doppler factor
Unknown
Orbital elements
Apogee altitude
1,293.59 km
Perigee altitude
1,243.229 km
Semi-major axis
7,646.546 km
Eccentricity
0.00329
Inclination
90.2658°
RAAN
25.2635°
Arg. of periapsis
325.1656°
True anomaly
34.94671°
Mean anomaly
34.731°
Eccentric anomaly
34.83878°
Mean motion
3.24597 °/min
Orbital period
110.91 mins
BSTAR
0.0022433
Loading maneuver chart data...
Computing Atmospheric mass density...
Loading historical data...
Loading historical data...
Loading historical data...
Loading historical data...
Loading historical data...
Loading historical data...
Loading historical data...

Documentation

Showing up to 5 results
|